This demonstration page uses our WeatherBlox Daily Observations layout. Learn more.

38.88101, -77.10428

Hourly Observations for July 11, 2019

Temp ( °F °C ) Dew Point ( °F °C ) Humidity (%) Winds ( mph kmh ) Pressure ( in mb ) Visibility ( mi km ) Precip ( " mm )
12:52 am 00:52 Mostly Cloudy 76 24.4 67 19.4 74 74 SSE 6 9 29.97 1015 10 16.09344 0 0
1:52 am 01:52 Mostly Cloudy 75 23.9 68 20 79 79 SSE 6 9 29.97 1015 10 16.09344 0 0
2:52 am 02:52 Mostly Cloudy 75 23.9 69 20.6 82 82 SSE 6 9 29.94 1014 10 16.09344 0 0
3:52 am 03:52 Mostly Cloudy 75 23.9 71 21.7 88 88 SSE 8 13 29.91 1013 10 16.09344 0 0
4:45 am 04:45 Cloudy 75 23.9 72 22.2 90 90 SSE 6 9 29.94 1014 10 16.09344 0 0
4:52 am 04:52 Cloudy 75 23.9 72 22.2 90 90 SSE 6 9 29.94 1014 10 16.09344 0 0
5:50 am 05:50 Cloudy 75 24 73 23 94 94 SSW 7 11 29.94 1014 10 16.09344 0 0
5:52 am 05:52 Cloudy 76 24.4 73 22.8 91 91 SSW 6 9 29.94 1014 10 16.09344 0 0
5:59 am 05:59 Cloudy 76 24.4 73 22.8 91 91 S 6 9 29.94 1014 10 16.09344 0 0
6:52 am 06:52 Mostly Cloudy 76 24.4 73 22.8 91 91 S 8 13 29.91 1013 10 16.09344 0 0
7:52 am 07:52 Mostly Sunny 78 25.6 74 23.3 87 87 S 10 17 29.91 1013 10 16.09344 0 0
8:52 am 08:52 Partly Cloudy 81 27.2 73 22.8 77 77 S 10 17 29.91 1013 10 16.09344 0 0
9:34 am 09:34 Mostly Cloudy 81 27.2 73 22.8 77 77 S 8 13 29.91 1013 10 16.09344 0 0
9:52 am 09:52 Cloudy 82 27.8 74 23.3 77 77 S 8 13 29.91 1013 10 16.09344 0 0
10:29 am 10:29 Cloudy with Light Rain 82 27.8 75 23.9 79 79 S 8 13 29.91 1013 8 12.874752 0.001 0.001
10:52 am 10:52 Cloudy with Light Rain 82 27.8 75 23.9 79 79 S 9 15 29.88 1012 10 16.09344 0.01 0.254
11:52 am 11:52 Cloudy 86 30 75 23.9 70 70 S 15 24 29.88 1012 10 16.09344 0.001 0.001
12:52 pm 12:52 Mostly Cloudy 89 31.7 75 23.9 63 63 S 15 24 29.85 1011 10 16.09344 0 0
1:52 pm 13:52 Mostly Cloudy 91 32.8 74 23.3 57 57 S 12 19 29.83 1010 10 16.09344 0 0
2:52 pm 14:52 Mostly Cloudy 87 30.6 73 22.8 63 63 S 10 17 29.8 1009 10 16.09344 0 0
3:21 pm 15:21 Mostly Cloudy 87 30.6 73 22.8 63 63 S 14 22 29.8 1009 10 16.09344 0 0
3:38 pm 15:38 Mostly Cloudy with Thunderstorms 88 31.1 72 22.2 59 59 SSW 13 20 29.8 1009 10 16.09344 0 0
3:52 pm 15:52 Windy with Storms Likely 84 28.9 72 22.2 67 67 W 24 39 29.8 1009 10 16.09344 0.001 0.001
4:01 pm 16:01 Mostly Cloudy with Light Thunderstorms 79 26.1 73 22.8 82 82 W 17 28 29.8 1009 10 16.09344 0.001 0.001
4:06 pm 16:06 Mostly Cloudy with Heavy Thunderstorms 78 25.6 74 23.3 87 87 WSW 17 28 29.8 1009 1 1.609344 0.001 0.001
4:14 pm 16:14 Cloudy with Light Thunderstorms 78 25.6 73 22.8 85 85 W 10 17 29.8 1009 5 8.04672 0.08 2.032
4:27 pm 16:27 Cloudy with Light Rain 79 26.1 74 23.3 85 85 Calm 29.8 1009 10 16.09344 0.08 2.032
4:52 pm 16:52 Cloudy 80 26.7 74 23.3 82 82 NNE 6 9 29.77 1008 10 16.09344 0.08 2.032
5:39 pm 17:39 Mostly Cloudy with Thunderstorms 79 26.1 74 23.3 85 85 NNE 7 11 29.77 1008 10 16.09344 0 0
5:52 pm 17:52 Cloudy with Light Thunderstorms 80 26.7 75 23.9 85 85 NNW 9 15 29.77 1008 10 16.09344 0.001 0.001
6:11 pm 18:11 Cloudy with Heavy Thunderstorms 78 25.6 73 22.8 85 85 WSW 14 22 29.8 1009 4 6.437376 0.03 0.762
6:18 pm 18:18 Cloudy with Heavy Thunderstorms 77 25 72 22.2 85 85 SW 18 30 29.83 1010 1.25 2.01168 0.06 1.524
6:22 pm 18:22 Cloudy with Heavy Thunderstorms 75 23.9 72 22.2 90 90 S 14 22 29.83 1010 0.75 1.207008 0.2 5.08
6:25 pm 18:25 Cloudy with Heavy Thunderstorms 75 23.9 72 22.2 90 90 SE 10 17 29.83 1010 0.5 0.804672 0.34 8.636
6:32 pm 18:32 Cloudy with Heavy Thunderstorms 75 23.9 72 22.2 90 90 VRB 7 11 29.8 1009 1.75 2.816352 0.57 14.478
6:43 pm 18:43 Cloudy with Heavy Thunderstorms 75 23.9 72 22.2 90 90 SSE 5 7 29.8 1009 4 6.437376 0.61 15.494
6:52 pm 18:52 Cloudy with Thunderstorms 75 23.9 72 22.2 90 90 SSE 3 6 29.8 1009 6 9.656064 0.64 16.256
7:08 pm 19:08 Cloudy with Nearby Thunderstorms 75 23.9 72 22.2 90 90 SW 5 7 29.8 1009 4 6.437376 0.05 1.27
7:37 pm 19:37 Cloudy with Rain 75 23.9 72 22.2 90 90 SSW 8 13 29.8 1009 7 11.265408 0.12 3.048
7:52 pm 19:52 Cloudy with Light Rain 75 23.9 72 22.2 90 90 SSW 7 11 29.8 1009 10 16.09344 0.14 3.556
8:52 pm 20:52 Mostly Cloudy 74 23.3 71 21.7 91 91 SW 8 13 29.77 1008 10 16.09344 0.01 0.254
8:59 pm 20:59 Mostly Cloudy 74 23.3 71 21.7 91 91 WSW 6 9 29.8 1009 10 16.09344 0 0
9:52 pm 21:52 Cloudy 74 23.3 70 21.1 88 88 SSW 6 9 29.8 1009 10 16.09344 0 0
10:52 pm 22:52 Cloudy 73 22.8 70 21.1 90 90 SW 6 9 29.8 1009 10 16.09344 0 0
11:52 pm 23:52 Mostly Cloudy 72 22 70 21 94 94 S 8 13 29.8 1009 10 16.09344 0 0

Powered by AerisWeather